This demonstration page uses our WeatherBlox Daily Observations layout. Learn more.

Left ArrowRight Arrow

41.12389, -100.76542

Hourly Observations for December 11, 2017

Temp ( °F °C ) Dew Point ( °F °C ) Humidity (%) Winds ( mph kmh ) Pressure ( in mb ) Visibility ( mi km ) Precip ( " mm )
12:53 am 00:53 Clear 26 -3.3 15 -9.4 63 63 NW 9 15 30.19 1022 10 16 0.00 0.00
1:53 am 01:53 Clear 23 -5 15 -9.4 72 72 NW 8 13 30.17 1022 10 16 0.00 0.00
2:53 am 02:53 Clear 23 -5 15 -9.4 72 72 NW 8 13 30.16 1022 10 16 0.00 0.00
3:53 am 03:53 Clear 26 -3.3 16 -8.9 66 66 NW 9 15 30.17 1022 10 16 0.00 0.00
4:53 am 04:53 Clear 27 -2.8 17 -8.3 66 66 NW 8 13 30.20 1023 10 16 0.00 0.00
5:53 am 05:53 Clear 27 -2.8 18 -7.8 69 69 NW 9 15 30.22 1024 10 16 0.00 0.00
6:53 am 06:53 Clear 28 -2.2 18 -7.8 66 66 NW 6 9 30.23 1024 10 16 0.00 0.00
7:53 am 07:53 Clear 29 -1.7 18 -7.8 63 63 NW 6 9 30.24 1024 10 16 0.00 0.00
8:53 am 08:53 Sunny 33 0.6 21 -6.1 61 61 NW 6 9 30.25 1024 10 16 0.00 0.00
9:53 am 09:53 Sunny 42 5.6 20 -6.7 41 41 WNW 12 19 30.23 1024 10 16 0.00 0.00
10:53 am 10:53 Sunny 53 11.7 15 -9.4 22 22 NNW 29 46 30.24 1024 10 16 0.00 0.00
11:53 am 11:53 Sunny 52 11.1 18 -7.8 26 26 NNW 25 41 30.25 1024 10 16 0.00 0.00
12:53 pm 12:53 Sunny 50 10 22 -5.6 33 33 NNW 33 54 30.26 1025 10 16 0.00 0.00
1:53 pm 13:53 Sunny 51 10.6 23 -5 33 33 NNW 25 41 30.27 1025 10 16 0.00 0.00
2:53 pm 14:53 Sunny 50 10 24 -4.4 36 36 NNW 21 33 30.28 1026 10 16 0.00 0.00
3:53 pm 15:53 Mostly Sunny 47 8.3 25 -3.9 42 42 NNW 20 31 30.32 1027 10 16 0.00 0.00
4:53 pm 16:53 Sunny 42 5.6 26 -3.3 53 53 N 14 22 30.37 1028 10 16 0.00 0.00
5:53 pm 17:53 Clear 39 3.9 26 -3.3 60 60 NNW 9 15 30.40 1030 10 16 0.00 0.00
6:53 pm 18:53 Clear 29 -1.7 22 -5.6 75 75 NW 6 9 30.44 1031 10 16 0.00 0.00
7:53 pm 19:53 Clear 26 -3.3 21 -6.1 81 81 NW 9 15 30.46 1032 10 16 0.00 0.00
8:53 pm 20:53 Clear 25 -3.9 20 -6.7 81 81 WNW 8 13 30.46 1032 10 16 0.00 0.00
9:53 pm 21:53 Clear 26 -3.3 22 -5.6 84 84 NW 6 9 30.46 1031 10 16 0.00 0.00
10:53 pm 22:53 Clear 23 -5 19 -7.2 85 85 NW 8 13 30.45 1031 10 16 0.00 0.00
11:53 pm 23:53 Clear 21 -6.1 18 -7.8 88 88 WNW 8 13 30.46 1031 10 16 0.00 0.00

Powered by AerisWeather